User: anonymous   Login
Location: Brno
(49.2000°N, 16.6330°E)
Time: 07:09:17
(UTC+01:00)
Language:

RESURS DK-1 - Orbit

View from above orbital plane
View from above orbital plane
View from above satellite
View from above satellite

Ground track
Ground track

The orbit data is extracted from the following two-line orbital elements,

1 29228U 06021A   17080.94071379 +.00000106 +00000-0 +15456-4 0  9990
2 29228 069.9360 320.0464 0002356 152.3605 207.7681 15.02111538594999
Epoch (UTC): 21 March 2017 22:34:37
Eccentricity: 0.0002356
inclination: 69.9360°
perigee height: 559 km
apogee height: 562 km
right ascension of ascending node: 320.0464°
argument of perigee: 152.3605°
revolutions per day: 15.02111538
mean anomaly at epoch: 207.7681°
orbit number at epoch: 59499

The dashed part of the orbit path shows where the satellite is in the earth's shadow,  

DLR